Wilson Lake Weather Center

Moon Phase Calendar



Wilson Lake Water Level
Online Cameras

 


      

Current Conditions in Killen
9/28/2022 11:53:56 PM

54°F
Feels Like 52
Clear
Humidity
66%
Pressure
30.3"
Wind
11.5 mph (NE)
Dew Point
43°F
UV Index
0/10 (Low)
Visibility
6 mi

Hourly Forecast

Date & Time Wed, Sep 28
11:00 PM
Thu, Sep 29
12:00 AM
Thu, Sep 29
1:00 AM
Thu, Sep 29
2:00 AM
Thu, Sep 29
3:00 AM
Thu, Sep 29
4:00 AM
Thu, Sep 29
5:00 AM
Thu, Sep 29
6:00 AM
Thu, Sep 29
7:00 AM
Thu, Sep 29
8:00 AM
Thu, Sep 29
9:00 AM
Thu, Sep 29
10:00 AM
Thu, Sep 29
11:00 AM
Thu, Sep 29
12:00 PM
Thu, Sep 29
1:00 PM
Thu, Sep 29
2:00 PM
Thu, Sep 29
3:00 PM
Thu, Sep 29
4:00 PM
Thu, Sep 29
5:00 PM
Thu, Sep 29
6:00 PM
Thu, Sep 29
7:00 PM
Thu, Sep 29
8:00 PM
Thu, Sep 29
9:00 PM
Thu, Sep 29
10:00 PM
Thu, Sep 29
11:00 PM
Fri, Sep 30
12:00 AM
Fri, Sep 30
1:00 AM
Fri, Sep 30
2:00 AM
Fri, Sep 30
3:00 AM
Fri, Sep 30
4:00 AM
Fri, Sep 30
5:00 AM
Fri, Sep 30
6:00 AM
Fri, Sep 30
7:00 AM
Fri, Sep 30
8:00 AM
Fri, Sep 30
9:00 AM
Fri, Sep 30
10:00 AM
Fri, Sep 30
11:00 AM
Fri, Sep 30
12:00 PM
Fri, Sep 30
1:00 PM
Fri, Sep 30
2:00 PM
Fri, Sep 30
3:00 PM
Fri, Sep 30
4:00 PM
Fri, Sep 30
5:00 PM
Fri, Sep 30
6:00 PM
Fri, Sep 30
7:00 PM
Fri, Sep 30
8:00 PM
Fri, Sep 30
9:00 PM
Fri, Sep 30
10:00 PM
Condition
Clear

Clear

Clear

Clear

Clear

Clear

Clear

Clear

Clear

Clear

Clear

Clear

Clear

Clear

Clear

Clear

Clear

Clear

Clear

Clear

Clear

Clear

Clear

Clear

Clear

Clear

Clear

Clear

Clear

Clear

Clear

Clear

Clear

Clear

Clear

Clear

Clear

Clear

Clear

Clear

Clear

Clear

Clear

Clear

Clear

Clear

Clear

Clear
Temperature 54°F54°F54°F53°F52°F51°F49°F48°F47°F51°F56°F62°F66°F69°F72°F73°F73°F73°F72°F69°F62°F60°F60°F59°F57°F55°F53°F51°F50°F49°F49°F48°F48°F54°F61°F67°F71°F74°F76°F77°F78°F77°F75°F71°F63°F59°F57°F57°F
Feels Like 52°F52°F52°F51°F50°F49°F44°F43°F43°F49°F54°F60°F64°F68°F70°F71°F72°F72°F71°F67°F60°F58°F58°F57°F55°F54°F52°F50°F48°F47°F47°F46°F46°F52°F59°F65°F69°F73°F75°F76°F76°F76°F74°F69°F61°F57°F55°F55°F
Cloudiness 0%0%0%0%0%0%0%0%0%0%0%0%0%0%0%0%0%0%0%0%0%0%0%0%0%0%0%0%0%0%0%0%0%0%0%0%0%0%0%0%0%0%0%0%0%0%0%0%
Visibility 6 mi6 mi6 mi6 mi6 mi6 mi6 mi6 mi6 mi6 mi6 mi6 mi6 mi6 mi6 mi6 mi6 mi6 mi6 mi6 mi6 mi6 mi6 mi6 mi6 mi6 mi6 mi6 mi6 mi6 mi6 mi6 mi6 mi6 mi6 mi6 mi6 mi6 mi6 mi6 mi6 mi6 mi6 mi6 mi6 mi6 mi6 mi6 mi
Precipitation 0%0%0%0%0%0%0%0%0%0%0%0%0%0%0%0%0%0%0%0%0%0%0%0%0%0%0%0%0%0%0%0%0%0%0%0%0%0%0%0%0%0%0%0%0%0%0%0%
Humidity 64%66%65%65%66%69%73%77%79%69%57%47%39%34%31%30%31%32%34%40%50%56%54%58%62%66%71%76%80%81%82%83%83%69%53%43%35%28%25%23%23%24%28%34%43%50%56%57%
Dew Point 42°F43°F42°F42°F41°F41°F40°F41°F41°F41°F41°F41°F40°F40°F39°F40°F41°F41°F42°F43°F43°F44°F43°F43°F44°F44°F44°F44°F44°F44°F43°F43°F43°F43°F44°F43°F42°F39°F38°F37°F37°F37°F40°F41°F40°F40°F41°F42°F
Pressure 30.3"30.3"30.3"30.3"30.27"30.27"30.27"30.27"30.3"30.3"30.3"30.27"30.27"30.24"30.21"30.18"30.15"30.12"30.12"30.12"30.12"30.15"30.15"30.15"30.15"30.12"30.12"30.12"30.12"30.12"30.12"30.12"30.12"30.12"30.12"30.09"30.09"30.06"30"29.97"29.97"29.94"29.94"29.94"29.94"29.94"29.94"29.94"
Wind Speed 11.5 mph11.5 mph11.3 mph12.3 mph13 mph12.8 mph11.1 mph10 mph9.5 mph11.7 mph14.3 mph13.2 mph12.9 mph13.8 mph14.6 mph15.1 mph15.4 mph15 mph13.6 mph11.4 mph8.5 mph9.2 mph10.2 mph9.8 mph9.5 mph8.5 mph7.4 mph6.5 mph5.9 mph5.6 mph5.6 mph5.6 mph5.6 mph6.1 mph8.3 mph9.4 mph10.4 mph11.5 mph12.6 mph13.5 mph14.2 mph14.3 mph12.5 mph9.8 mph7.4 mph7.5 mph8 mph9.1 mph
Wind
Direction
31°
NNE
35°
NE
41°
NE
39°
NE
39°
NE
43°
NE
44°
NE
39°
NE
36°
NE
41°
NE
57°
ENE
58°
ENE
54°
NE
52°
NE
54°
NE
54°
NE
52°
NE
45°
NE
43°
NE
39°
NE
23°
NNE
25°
NNE
34°
NE
34°
NE
38°
NE
42°
NE
46°
NE
54°
NE
49°
NE
42°
NE
38°
NE
26°
NNE
23°
NNE
19°
NNE
25°
NNE
30°
NNE
33°
NNE
32°
NNE
32°
NNE
32°
NNE
32°
NNE
30°
NNE
31°
NNE
29°
NNE
18°
NNE

N

N
20°
NNE

Daily Forecast

Date High Low Precip. Humidity
Today
Sep 28

Clear
71 °F
49 °F
0%
21%
Thursday
Sep 29

Clear
73 °F
47 °F
0%
34%
Friday
Sep 30

Clear
77 °F
48 °F
0%
28%
Saturday
Oct 1

Clouds
79 °F
49 °F
0%
36%
Sunday
Oct 2

Clouds
74 °F
51 °F
0%
49%
Monday
Oct 3

Clouds
75 °F
57 °F
0%
52%
Tuesday
Oct 4

Clouds
75 °F
57 °F
8%
49%
Wednesday
Oct 5

Clouds
79 °F
64 °F
0%
54%
Thursday
Oct 6

Clear
83 °F
58 °F
0%
33%
Friday
Oct 7

Clouds
84 °F
61 °F
0%
35%
Saturday
Oct 8

Clear
76 °F
46 °F
0%
18%
Sunday
Oct 9

Clear
86 °F
54 °F
0%
21%
Monday
Oct 10

Clouds
86 °F
60 °F
0%
33%
Tuesday
Oct 11

Rain
68 °F
54 °F
100%
89%
Wednesday
Oct 12

Clear
61 °F
41 °F
0%
26%
Thursday
Oct 13

Clear
72 °F
41 °F
0%
24%

Temperature 8-14 Day Outlook



Precipitation 8-14 Day Outlook




Quick Links
Wilson Lake News
Wilson Lake Photos
Wilson Lake Videos




About Us
Contact Us
Site Map
Search Site
Advertise With Us
   
www.WilsonLake.info
THE WILSON LAKE WEBSITE

Copyright 2022, Lakes Online
Privacy    |    Legal